Location: Latina
(41.4670°N, 12.8670°E)
Time: 17:26:22
(UTC+02:00)

ISS - Pass Details

Date: 20 May 2021
Orbit: 417 x 422 km, 51.6° (Epoch: 18 June)

Event Time Altitude Azimuth Distance (km) Brightness Sun altitude
Rises 22:55:14 0° 297° (WNW) 2,366 1.1 -21.4°
Reaches altitude 10° 22:58:04 10° 323° (NW) 1,503 0.2 -21.7°
Maximum altitude 23:00:02 15° 359° (N) 1,258 -0.6 -21.9°
Drops below altitude 10° 23:02:00 10° 35° (NE) 1,505 -0.7 -22.1°
Enters shadow 23:03:59 - 55° (NE) 2,081 -0.2 -22.3°
